New Deal, TX

9:04 AM CDT on August 29, 2016 (GMT -0500)
Lubbock International

Weather History for KLBB - February, 2012

Change the Weather History Date:

Monday, February 20, 2012

  Actual Average Record
Temperature  
Mean Temperature 43 °F 46 °F  
Max Temperature 56 °F 60 °F 85 °F (2016)
Min Temperature 30 °F 31 °F 4 °F (1918)
Degree Days  
Heating Degree Days 22 19  
Month to date heating degree days 491 429  
Since 1 July heating degree days 2531 2594  
Cooling Degree Days 0 0  
Month to date cooling degree days 0 0  
Year to date cooling degree days 0 0  
Moisture  
Dew Point 18 °F    
Average Humidity 55    
Maximum Humidity 100    
Minimum Humidity 10    
Precipitation  
Precipitation 0.00 in 0.03 in 2.11 in (1961)
Month to date precipitation 0.51 0.54  
Year to date precipitation 0.52 1.19  
Snow  
Snow 0.00 in 0.00 in 12.10 in (1961)
Month to date snowfall 2.8 1.3  
Since 1 July snowfall 6.8 7.1  
Snow Depth 0.00 in    
Sea Level Pressure  
Sea Level Pressure 29.90 in    
Wind  
Wind Speed 17 mph (West)    
Max Wind Speed 51 mph    
Max Gust Speed 63 mph    
Visibility 7 miles    
Events      
T = Trace of Precipitation, MM = Missing Value Source: NWS Daily Summary

Daily Weather History Graph

Daily Weather History Graph

Search for Another Location

Airport or City:

Trip Planner

Search our weather history database for the weather conditions in past years. The results will help you decide how hot, cold, wet, or windy it might be!

Date:

Astronomy

Feb. 20, 2012 Rise Set
Actual Time 7:26 AM CST 6:35 PM CST
Civil Twilight 7:01 AM CST 7:01 PM CST
Nautical Twilight 6:32 AM CST 7:30 PM CST
Astronomical Twilight 6:03 AM CST 7:59 PM CST
Moon 6:23 AM CST (2/20) 5:43 PM CST (2/20)
Length of Visible Light 11h 59m
Length of Day
11h 09m
Waning Crescent, 1% of the Moon is Illuminated
Feb 20
Waning Crescent
Feb 21
New
Feb 29
First Quarter
Mar 8
Full
Mar 14
Last Quarter

Hourly Weather History & Observations

Time (CST) Temp. Windchill Dew Point Humidity Pressure Visibility Wind Dir Wind Speed Gust Speed Precip Events Conditions
12:53 AM 42.1 °F 34.5 °F 41.0 °F 96% 29.80 in 9.0 mi South 15.0 mph - N/A   Mostly Cloudy
1:10 AM 42.8 °F 36.6 °F 39.2 °F 87% 29.83 in 8.0 mi South 11.5 mph - N/A   Scattered Clouds
1:53 AM 42.1 °F 35.2 °F 39.9 °F 92% 29.81 in 10.0 mi South 12.7 mph - N/A   Scattered Clouds
2:53 AM 42.1 °F 34.9 °F 39.0 °F 89% 29.78 in 10.0 mi SSW 13.8 mph 23.0 mph N/A   Partly Cloudy
3:53 AM 42.1 °F 34.2 °F 39.0 °F 89% 29.76 in 10.0 mi SSW 16.1 mph - N/A   Partly Cloudy
4:53 AM 39.9 °F 33.4 °F 37.9 °F 93% 29.80 in 7.0 mi West 10.4 mph - N/A   Scattered Clouds
5:53 AM 37.9 °F 32.7 °F 37.0 °F 97% 29.79 in 5.0 mi SW 6.9 mph - N/A   Clear
6:53 AM 37.0 °F 31.6 °F 36.0 °F 96% 29.81 in 5.0 mi West 6.9 mph - N/A   Scattered Clouds
7:53 AM 36.0 °F 31.1 °F 34.0 °F 93% 29.85 in 7.0 mi WSW 5.8 mph - N/A   Scattered Clouds
8:53 AM 42.1 °F 36.1 °F 36.0 °F 79% 29.86 in 10.0 mi WSW 10.4 mph - N/A   Mostly Cloudy
9:53 AM 48.9 °F - 36.0 °F 61% 29.85 in 10.0 mi WSW 16.1 mph - N/A   Scattered Clouds
10:53 AM 53.1 °F - 30.0 °F 41% 29.86 in 10.0 mi West 27.6 mph 40.3 mph N/A   Partly Cloudy
11:53 AM 54.0 °F - 28.9 °F 38% 29.86 in 9.0 mi WNW 36.8 mph 46.0 mph N/A   Scattered Clouds
12:53 PM 55.0 °F - 19.0 °F 24% 29.87 in 4.0 mi West 39.1 mph 50.6 mph N/A   Widespread Dust
1:04 PM 53.6 °F - 10.4 °F 18% 29.92 in 1.5 mi WNW 43.7 mph 54.1 mph N/A   Widespread Dust
1:09 PM 53.6 °F - 6.8 °F 15% 29.93 in 0.8 mi West 44.9 mph 63.3 mph N/A   Widespread Dust
1:34 PM 53.6 °F - 3.2 °F 13% 29.92 in 1.0 mi West 42.6 mph 51.8 mph N/A   Widespread Dust
1:53 PM 53.1 °F - -2.9 °F 10% 29.86 in 1.0 mi West 40.3 mph 57.5 mph N/A   Widespread Dust
2:08 PM 53.6 °F - -2.2 °F 10% 29.91 in 0.8 mi West 42.6 mph 51.8 mph N/A   Widespread Dust
2:17 PM 53.6 °F - -0.4 °F 11% 29.90 in 1.0 mi West 38.0 mph 51.8 mph N/A   Widespread Dust
2:53 PM 54.0 °F - 3.0 °F 13% 29.88 in 1.0 mi WNW 31.1 mph 46.0 mph N/A   Widespread Dust
3:53 PM 55.0 °F - 1.0 °F 11% 29.88 in 1.0 mi WNW 33.4 mph 42.6 mph N/A   Widespread Dust
4:27 PM 55.4 °F - -0.4 °F 10% 29.94 in 6.0 mi WNW 24.2 mph 40.3 mph N/A   Widespread Dust
4:53 PM 54.0 °F - -2.0 °F 10% 29.91 in 7.0 mi WNW 27.6 mph 36.8 mph N/A   Clear
5:46 PM 51.8 °F - -0.4 °F 12% 29.97 in 7.0 mi WNW 21.9 mph 29.9 mph N/A   Clear
5:53 PM 52.0 °F - 1.0 °F 12% 29.95 in 9.0 mi WNW 16.1 mph 27.6 mph N/A   Clear
6:53 PM 46.9 °F - 3.0 °F 16% 29.99 in 10.0 mi West 12.7 mph - N/A   Clear
7:53 PM 39.0 °F 32.8 °F 10.0 °F 30% 30.04 in 10.0 mi West 9.2 mph - N/A   Clear
8:53 PM 36.0 °F 29.0 °F 12.0 °F 37% 30.04 in 10.0 mi WNW 9.2 mph - N/A   Clear
9:53 PM 37.0 °F 30.4 °F 12.0 °F 36% 30.06 in 10.0 mi SW 9.2 mph - N/A   Clear
10:53 PM 33.1 °F 26.1 °F 12.9 °F 43% 30.07 in 10.0 mi WSW 8.1 mph - N/A   Clear
11:53 PM 30.0 °F 25.2 °F 12.9 °F 49% 30.07 in 10.0 mi West 4.6 mph - N/A   Clear